DateTimeUTC,F1_A11,F1_S11,BsB_S11,BsG_S11,BsR_S11,BbsB_S11,BbsG_S11,BbsR_S11,BaB_A11,BaG_A11,BaR_A11,T_S11,U_S11,P_S11,T1_A11
2020-08-14T00:00:00Z,00000388,20000608,,,,,,,,,,22.0,02.8,0662.8,30.6
2020-08-14T00:01:00Z,00000388,20000608,,,,,,,,,,22.0,02.8,0662.7,30.5
2020-08-14T00:02:00Z,00000388,20000608,,,,,,,,,,22.0,02.8,0662.7,30.5
2020-08-14T00:03:00Z,00000388,60000608,,,,,,,,,,22.0,02.6,0662.7,30.5
2020-08-14T00:04:00Z,00000388,40000608,-000.06,0000.35,0000.28,0000.08,-000.02,-000.04,0000.07,-000.06,-000.08,21.8,02.8,0663.7,30.6
2020-08-14T00:05:00Z,00000388,00000608,0000.86,0000.25,0000.07,0000.87,0000.45,0000.02,-000.17,-000.02,0000.02,21.7,02.8,0663.8,30.6
2020-08-14T00:06:00Z,00000388,00000608,-000.14,0000.07,-000.00,0000.18,0000.70,-000.03,0000.17,0000.26,0000.10,21.8,02.8,0663.8,30.7
2020-08-14T00:07:00Z,00000388,00000608,0001.37,0000.34,-000.05,0000.19,0000.13,0000.26,-000.05,0000.01,-000.05,21.8,02.8,0663.8,30.7
2020-08-14T00:08:00Z,00000388,00000608,0000.87,0000.72,0000.31,-000.46,0000.07,0000.14,-000.02,-000.04,0000.07,21.8,02.8,0663.9,30.7
2020-08-14T00:09:00Z,00000388,00000608,0001.39,0000.80,0000.74,0000.20,0000.26,0000.24,-000.03,-000.03,-000.09,21.9,02.8,0663.8,30.7
2020-08-14T00:10:00Z,00000388,00000608,-000.16,0000.02,0000.18,-000.08,0000.35,-000.02,0000.11,-000.00,0000.04,21.9,02.8,0663.8,30.7
2020-08-14T00:11:00Z,00000388,00000608,0000.86,0000.58,-000.04,0000.52,-000.11,-000.29,0000.03,-000.01,0000.06,21.8,02.8,0663.9,30.7
2020-08-14T00:12:00Z,00000388,00000608,-000.71,-000.44,0000.22,0000.42,0000.24,-000.08,-000.00,0000.14,-000.05,21.8,02.8,0663.9,30.6
2020-08-14T00:13:00Z,00000388,00000608,0000.75,0000.44,0000.42,0000.88,0000.70,0000.05,0000.05,0000.07,0000.13,21.7,02.8,0663.9,30.6
2020-08-14T00:14:00Z,00000388,00000608,0001.25,0000.66,0000.22,0000.08,0000.21,0000.17,0000.13,0000.02,0000.06,21.7,02.8,0663.8,30.5
2020-08-14T00:15:00Z,00000388,00000608,0001.43,0000.59,0000.45,-000.02,0000.61,-000.20,-000.01,0000.03,-000.00,21.7,02.9,0663.9,30.5
2020-08-14T00:16:00Z,00000388,00000608,0000.20,0000.46,0000.27,0000.40,0000.23,0000.19,0000.03,-000.20,-000.01,21.6,02.9,0663.9,30.5
2020-08-14T00:17:00Z,00000388,00000608,0001.37,0000.39,0000.33,0000.61,-000.02,-000.07,0000.05,0000.04,-000.07,21.6,02.9,0663.9,30.5
2020-08-14T00:18:00Z,00000388,00000608,0000.91,0000.09,0000.59,0000.36,-000.03,0000.32,0000.13,0000.08,0000.09,21.6,02.9,0663.8,30.5
2020-08-14T00:19:00Z,00000388,00000608,0001.20,0000.18,0000.39,0000.05,-000.24,-000.09,-000.16,0000.05,0000.07,21.6,02.9,0663.8,30.5
2020-08-14T00:20:00Z,00000388,00000608,0000.53,-000.34,0000.19,-000.26,0000.37,0000.01,0000.08,0000.02,-000.10,21.6,03.0,0664.0,30.6
2020-08-14T00:21:00Z,00000388,00000608,0000.55,0000.37,0000.45,0000.52,0000.11,-000.17,-000.15,0000.02,0000.05,21.6,02.9,0664.0,30.6
2020-08-14T00:22:00Z,00000388,00000608,0000.57,0000.36,0000.19,-000.06,-000.15,0000.03,-000.00,0000.12,-000.02,21.7,03.0,0664.1,30.7
2020-08-14T00:23:00Z,00000388,00000608,0000.68,0000.51,0000.05,0001.37,0000.17,0000.40,0000.07,-000.02,0000.12,21.7,03.0,0664.1,30.7
2020-08-14T00:24:00Z,00000388,00000608,0000.24,0000.51,0000.13,0000.09,-000.11,-000.01,-000.07,0000.03,-000.14,21.8,02.9,0664.1,30.7
2020-08-14T00:25:00Z,00000388,00000608,0001.54,0000.53,0000.36,-000.41,0000.24,0000.07,-000.12,0000.01,0000.11,21.8,02.9,0664.1,30.7
2020-08-14T00:26:00Z,00000388,00000608,0000.86,0000.39,0000.04,0000.23,0000.22,0000.31,0000.03,-000.12,0000.03,21.8,02.9,0664.1,30.8
2020-08-14T00:27:00Z,00000388,00000608,0000.50,0000.12,0000.10,0000.66,0000.11,0000.30,0000.21,0000.13,-000.03,21.8,02.9,0664.1,30.7
2020-08-14T00:28:00Z,00000388,00000608,0000.03,0000.03,-000.22,-000.48,-000.32,-000.17,-000.14,-000.01,0000.02,21.8,02.9,0664.2,30.7
2020-08-14T00:29:00Z,00000388,00000608,0001.18,0000.27,-000.03,0000.28,-000.06,-000.00,0000.19,-000.14,0000.15,21.8,02.9,0664.1,30.7
2020-08-14T00:30:00Z,00000388,00000608,-000.24,0000.23,0000.12,-000.46,0000.24,-000.15,-000.01,0000.09,-000.05,21.8,02.9,0664.1,30.6
2020-08-14T00:31:00Z,00000388,00000608,0000.58,0000.09,0000.28,-000.21,-000.08,-000.06,0000.11,0000.26,0000.01,21.7,02.9,0664.1,30.5
2020-08-14T00:32:00Z,00000388,00000608,0001.04,0000.41,0000.58,0000.17,0000.10,0000.24,-000.03,-000.12,0000.04,21.7,02.9,0664.1,30.5
2020-08-14T00:33:00Z,00000388,00000608,0000.95,0000.29,0000.17,0000.26,0000.34,0000.01,0000.05,-000.10,-000.00,21.6,02.9,0664.2,30.5
2020-08-14T00:34:00Z,00000388,00000608,0000.25,0000.27,0000.37,-000.17,0000.22,0000.12,0000.00,0000.12,-000.09,21.6,02.8,0664.2,30.6
2020-08-14T00:35:00Z,00000388,00000608,-000.01,0000.31,-000.20,0000.17,0000.07,-000.12,-000.13,0000.02,-000.08,21.7,03.0,0664.2,30.6
2020-08-14T00:36:00Z,00000388,00000608,0000.93,0000.65,0000.45,0000.23,-000.01,0000.53,0000.11,0000.10,0000.26,21.7,03.0,0664.2,30.7
2020-08-14T00:37:00Z,00000388,00000608,0000.78,0000.15,0000.21,0000.13,0000.15,0000.00,-000.09,0000.05,-000.20,21.7,02.9,0664.2,30.7
2020-08-14T00:38:00Z,00000388,00000608,0000.14,0000.54,-000.10,0000.35,0000.08,0000.20,0000.04,0000.03,0000.14,21.8,02.9,0664.3,30.7
2020-08-14T00:39:00Z,00000388,00000608,0001.20,-000.12,0000.07,0000.58,0000.28,0000.16,0000.14,-000.14,0000.07,21.8,03.0,0664.3,30.7
2020-08-14T00:40:00Z,00000388,00000608,0000.44,0000.10,0000.62,0000.86,0000.09,0000.06,-000.02,0000.06,-000.09,21.9,03.0,0664.4,30.8
2020-08-14T00:41:00Z,00000388,00000608,-000.15,0000.09,0000.45,0000.17,0000.24,0000.20,-000.01,-000.12,0000.07,21.9,03.0,0664.4,30.7
2020-08-14T00:42:00Z,00000388,00000608,-001.26,0000.13,-000.04,0000.02,0000.18,0000.30,-000.04,0000.04,-000.02,21.8,02.9,0664.4,30.7
2020-08-14T00:43:00Z,00000388,00000608,0001.07,0000.22,0000.54,0000.54,0000.32,0000.15,0000.06,0000.16,-000.05,21.8,02.9,0664.4,30.6
2020-08-14T00:44:00Z,00000388,00000608,-000.07,0000.18,0000.68,0000.01,-000.02,0000.30,0000.13,0000.10,0000.13,21.8,02.9,0664.4,30.6
2020-08-14T00:45:00Z,00000388,00000608,0000.78,-000.56,0000.93,0000.28,0000.49,0000.03,0000.03,-000.05,-000.05,21.7,02.9,0664.4,30.5
2020-08-14T00:46:00Z,00000388,00000608,0001.66,-000.17,0000.16,0000.92,0000.53,0000.26,0000.10,-000.05,0000.01,21.7,03.0,0664.4,30.5
2020-08-14T00:47:00Z,00000388,00000608,0000.63,0000.10,0000.17,0000.83,-000.05,0000.16,-000.05,-000.00,0000.03,21.6,02.9,0664.3,30.5
2020-08-14T00:48:00Z,00000388,00000608,-000.10,-000.00,0000.56,0000.04,-000.08,0000.50,-000.01,0000.04,-000.03,21.6,03.0,0664.4,30.5
2020-08-14T00:49:00Z,00000388,00000608,0000.08,0000.15,0000.09,0000.24,0000.34,-000.06,0000.06,0000.05,0000.13,21.6,03.0,0664.4,30.6
2020-08-14T00:50:00Z,00000388,00000608,0000.95,0000.16,-000.09,-000.14,0000.19,0000.48,0000.04,0000.14,0000.06,21.7,02.9,0664.5,30.6
2020-08-14T00:51:00Z,00000388,00000608,-000.46,0000.22,0000.56,0000.26,-000.10,0000.07,-000.05,0000.04,-000.02,21.7,03.0,0664.4,30.7
2020-08-14T00:52:00Z,00000388,00000608,0000.13,0000.37,0000.33,0000.36,0000.14,-000.08,-000.05,0000.03,0000.04,21.8,03.0,0664.5,30.7
2020-08-14T00:53:00Z,00000388,00000608,0000.22,0000.05,0000.60,0000.41,-000.32,0000.35,0000.03,0000.07,0000.02,21.8,03.0,0664.5,30.7
2020-08-14T00:54:00Z,00000388,00000608,-000.44,0000.39,0000.33,-000.37,0000.05,-000.02,0000.05,-000.08,0000.07,21.9,03.0,0664.5,30.8
2020-08-14T00:55:00Z,00000388,00000608,0001.90,-000.49,0000.14,0000.24,0000.54,0000.03,-000.06,-000.01,-000.25,21.9,03.0,0664.5,30.8
2020-08-14T00:56:00Z,00000388,00000608,0000.47,0000.41,0000.08,0000.23,0000.31,0000.02,0000.17,0000.00,0000.17,22.0,03.0,0664.5,30.8
2020-08-14T00:57:00Z,00000388,40000608,,,,,,,,,,22.1,02.6,0664.6,30.8
2020-08-14T00:58:00Z,00000388,60000608,,,,,,,,,,22.1,02.8,0663.5,30.7
2020-08-14T00:59:00Z,00000388,20000608,,,,,,,,,,22.1,02.8,0663.5,30.7
2020-08-14T01:00:00Z,00000388,20000608,,,,,,,,,,22.1,02.8,0663.5,30.6
2020-08-14T01:01:00Z,00000388,20000608,,,,,,,,,,22.1,02.8,0663.5,30.5
2020-08-14T01:02:00Z,00000388,20000608,,,,,,,,,,22.1,02.8,0663.5,30.5
2020-08-14T01:03:00Z,00000388,60000608,,,,,,,,,,22.1,02.8,0663.4,30.5
2020-08-14T01:04:00Z,00000388,40000608,0001.24,0000.26,0000.02,0000.71,0000.17,-000.23,-000.25,-000.11,-000.25,21.9,02.9,0664.4,30.6
2020-08-14T01:05:00Z,00000388,00000608,0000.56,0000.14,0000.23,0000.24,0000.59,0000.26,-000.04,0000.12,0000.13,21.9,02.9,0664.5,30.7
2020-08-14T01:06:00Z,00000388,00000608,-000.20,0000.51,0000.64,-000.01,0000.08,0000.01,0000.15,-000.02,-000.02,21.9,03.0,0664.5,30.7
2020-08-14T01:07:00Z,00000388,00000608,-000.23,0000.39,0000.04,-000.35,0000.71,-000.05,-000.18,0000.00,-000.04,22.0,02.9,0664.6,30.7
2020-08-14T01:08:00Z,00000388,00000608,0000.07,0000.73,-000.04,-000.29,0000.49,-000.27,0000.05,0000.04,0000.00,22.0,02.9,0664.6,30.7
2020-08-14T01:09:00Z,00000388,00000608,0001.68,0000.11,0000.14,0000.33,0000.47,-000.06,-000.05,-000.14,0000.08,22.0,02.9,0664.6,30.7
2020-08-14T01:10:00Z,00000388,00000608,0000.06,0000.44,-000.10,0000.50,-000.05,-000.04,0000.14,0000.11,-000.05,22.0,02.9,0664.6,30.7
2020-08-14T01:11:00Z,00000388,00000608,0000.27,0000.58,-000.41,0000.41,0000.15,-000.08,0000.01,0000.11,0000.19,21.9,02.9,0664.5,30.6
2020-08-14T01:12:00Z,00000388,00000608,0000.99,0000.35,0000.19,0000.89,0000.49,-000.38,0000.06,-000.01,-000.06,21.9,02.9,0664.5,30.5
2020-08-14T01:13:00Z,00000388,00000608,0000.18,0000.21,-000.19,-000.22,0000.40,-000.41,-000.08,-000.10,-000.01,21.9,02.9,0664.5,30.5
2020-08-14T01:14:00Z,00000388,00000608,-000.22,0000.11,0000.19,0000.29,0000.24,0000.06,0000.23,-000.00,0000.05,21.8,02.9,0664.5,30.5
2020-08-14T01:15:00Z,00000388,00000608,0000.51,-000.05,0000.57,0000.51,0000.11,-000.13,-000.04,0000.08,-000.06,21.8,02.9,0664.5,30.5
2020-08-14T01:16:00Z,00000388,00000608,0000.07,0000.43,-000.24,-000.22,0000.05,-000.04,-000.10,-000.06,-000.05,21.7,02.8,0664.5,30.4
2020-08-14T01:17:00Z,00000388,00000608,0000.34,0000.18,0000.30,0000.33,0000.17,-000.64,-000.15,-000.14,-000.04,21.7,02.9,0664.5,30.5
2020-08-14T01:18:00Z,00000388,00000608,0000.38,0000.60,-000.10,-000.10,0000.53,-000.05,0000.14,0000.16,0000.18,21.7,02.9,0664.4,30.5
2020-08-14T01:19:00Z,00000388,00000608,0001.12,0000.20,0000.22,0000.18,0000.41,0000.13,-000.09,0000.06,-000.10,21.7,02.9,0664.5,30.6
2020-08-14T01:20:00Z,00000388,00000608,0000.37,0000.82,0000.05,-000.02,0000.15,-000.16,0000.04,0000.04,-000.03,21.7,02.8,0664.5,30.6
2020-08-14T01:21:00Z,00000388,00000608,-000.56,-000.05,0000.07,0000.01,0000.06,-000.19,0000.04,-000.00,0000.01,21.8,02.9,0664.6,30.7
2020-08-14T01:22:00Z,00000388,00000608,-000.59,0000.52,0000.09,-000.08,0000.04,-000.12,-000.11,0000.01,-000.04,21.8,02.9,0664.6,30.7
2020-08-14T01:23:00Z,00000388,00000608,0000.05,0000.30,0000.31,0000.23,0000.51,0000.12,0000.08,-000.04,-000.03,21.9,02.9,0664.6,30.7
2020-08-14T01:24:00Z,00000388,00000608,-000.38,0000.58,0000.19,-000.09,0000.45,-000.11,-000.18,-000.25,0000.03,21.9,02.8,0664.5,30.7
2020-08-14T01:25:00Z,00000388,00000608,0001.42,0000.36,-000.06,0000.39,0000.17,-000.30,0000.09,0000.11,0000.01,21.8,02.8,0664.6,30.6
2020-08-14T01:26:00Z,00000388,00000608,0000.74,0000.01,0000.16,0000.26,0000.48,-000.32,0000.07,0000.06,-000.02,21.8,02.7,0664.5,30.6
2020-08-14T01:27:00Z,00000388,00000608,-000.47,0000.33,0000.17,-000.21,0000.42,-000.19,0000.04,-000.04,0000.17,21.8,02.8,0664.5,30.5
2020-08-14T01:28:00Z,00000388,00000608,0000.27,0000.80,-000.02,0000.29,0000.79,-000.27,0000.15,0000.12,0000.03,21.7,02.8,0664.5,30.5
2020-08-14T01:29:00Z,00000388,00000608,-000.19,0000.82,0000.32,0000.65,0000.25,0000.13,-000.14,-000.21,-000.08,21.7,02.7,0664.5,30.5
2020-08-14T01:30:00Z,00000388,00000608,0000.67,0000.51,-000.09,0000.08,-000.22,0000.11,-000.08,0000.03,-000.17,21.6,02.7,0664.5,30.5
2020-08-14T01:31:00Z,00000388,00000608,0000.66,0000.49,0000.13,0001.06,0000.05,0000.10,0000.14,0000.15,0000.24,21.6,02.7,0664.4,30.4
2020-08-14T01:32:00Z,00000388,00000608,0000.09,-000.02,0000.57,0000.78,-000.04,-000.09,0000.01,-000.15,-000.02,21.6,02.8,0664.5,30.4
2020-08-14T01:33:00Z,00000388,00000608,0001.29,0000.33,0000.08,-000.22,0000.29,-000.30,-000.04,0000.24,-000.11,21.6,02.8,0664.5,30.4
2020-08-14T01:34:00Z,00000388,00000608,-000.50,0000.66,0000.95,0000.88,0000.03,0000.14,0000.15,-000.07,-000.02,21.6,02.8,0664.5,30.5
2020-08-14T01:35:00Z,00000388,00000608,0000.88,0000.34,0000.36,-000.09,0000.65,-000.09,-000.11,-000.08,-000.03,21.6,02.8,0664.6,30.6
2020-08-14T01:36:00Z,00000388,00000608,-000.33,0000.19,0000.27,-000.72,0000.03,-000.01,-000.10,0000.10,0000.08,21.7,02.8,0664.6,30.6
2020-08-14T01:37:00Z,00000388,00000608,0000.20,-000.15,0000.30,0000.11,0000.30,0000.09,0000.13,-000.05,0000.04,21.7,02.8,0664.6,30.7
2020-08-14T01:38:00Z,00000388,00000608,-000.78,0000.17,-000.56,-000.11,0000.21,0000.09,-000.14,0000.13,0000.10,21.8,02.8,0664.6,30.7
2020-08-14T01:39:00Z,00000388,00000608,0000.00,0000.78,0000.09,-000.28,0000.46,-000.20,0000.02,-000.04,-000.09,21.8,02.8,0664.6,30.7
2020-08-14T01:40:00Z,00000388,00000608,0000.08,0000.14,0000.07,0000.25,0000.62,-000.30,0000.16,-000.03,-000.04,21.8,02.8,0664.6,30.7
2020-08-14T01:41:00Z,00000388,00000608,-000.29,0000.63,0000.07,0000.20,0000.48,-000.26,-000.10,0000.03,0000.12,21.8,02.7,0664.6,30.7
2020-08-14T01:42:00Z,00000388,00000608,0000.91,0000.29,0000.34,0000.74,0000.19,-000.02,0000.08,-000.00,-000.06,21.8,02.8,0664.6,30.7
2020-08-14T01:43:00Z,00000388,00000608,-000.12,0000.62,0000.24,-000.68,0000.55,-000.02,0000.07,0000.16,0000.05,21.8,02.8,0664.6,30.6
2020-08-14T01:44:00Z,00000388,00000608,0000.58,0000.87,-000.05,-000.33,0000.59,0000.15,0000.11,0000.11,0000.14,21.7,02.8,0664.5,30.6
2020-08-14T01:45:00Z,00000388,00000608,0001.23,0000.11,-000.03,0000.34,0000.47,-000.32,0000.09,-000.08,0000.04,21.7,02.9,0664.5,30.5
2020-08-14T01:46:00Z,00000388,00000608,0001.01,0000.26,0000.23,0000.31,-000.14,0000.22,-000.07,-000.03,-000.05,21.7,02.9,0664.5,30.5
2020-08-14T01:47:00Z,00000388,00000608,-000.25,0000.14,0000.28,0000.02,0000.14,0000.12,0000.00,0000.06,0000.07,21.6,02.9,0664.5,30.5
2020-08-14T01:48:00Z,00000388,00000608,0000.09,0000.58,0000.47,0000.09,0000.23,-000.42,0000.01,-000.02,-000.03,21.6,02.9,0664.5,30.5
2020-08-14T01:49:00Z,00000388,00000608,0000.41,0000.48,-000.14,0000.72,0000.30,0000.04,0000.10,-000.16,-000.08,21.6,02.8,0664.5,30.6
2020-08-14T01:50:00Z,00000388,00000608,0000.20,0000.33,-000.16,-000.05,0000.26,0000.33,-000.03,0000.18,0000.12,21.7,02.9,0664.6,30.6
2020-08-14T01:51:00Z,00000388,00000608,0000.32,0000.39,0000.18,-000.24,0000.25,0000.01,-000.05,-000.00,-000.00,21.7,02.9,0664.6,30.7
2020-08-14T01:52:00Z,00000388,00000608,0000.14,0000.31,0000.06,-000.19,0000.39,-000.29,0000.01,0000.07,-000.00,21.8,02.9,0664.6,30.7
2020-08-14T01:53:00Z,00000388,00000608,0000.02,0000.15,-000.10,-000.45,0000.47,0000.33,-000.01,-000.03,-000.01,21.8,02.8,0664.6,30.7
2020-08-14T01:54:00Z,00000388,00000608,0000.20,-000.17,0000.03,-000.00,-000.01,-000.41,0000.14,0000.05,0000.06,21.9,02.9,0664.6,30.7
2020-08-14T01:55:00Z,00000388,00000608,0000.21,0000.57,-000.06,-000.12,0000.34,-000.13,-000.19,0000.19,0000.01,21.9,02.8,0664.6,30.8
2020-08-14T01:56:00Z,00000388,00000608,0000.72,0000.44,0000.03,-000.30,0000.25,0000.07,0000.05,-000.26,-000.01,21.9,02.8,0664.7,30.8
2020-08-14T01:57:00Z,00000388,40000608,,,,,,,,,,21.9,02.6,0664.8,30.8
2020-08-14T01:58:00Z,00000388,60000608,,,,,,,,,,22.0,02.8,0663.7,30.7
2020-08-14T01:59:00Z,00000388,20000608,,,,,,,,,,22.1,02.8,0663.6,30.6
2020-08-14T02:00:00Z,00000388,20000608,,,,,,,,,,22.1,02.8,0663.6,30.6
2020-08-14T02:01:00Z,00000388,20000608,,,,,,,,,,22.1,02.7,0663.6,30.6
2020-08-14T02:02:00Z,00000388,20000608,,,,,,,,,,22.0,02.6,0663.6,30.5
2020-08-14T02:03:00Z,00000388,60000608,,,,,,,,,,22.0,02.6,0663.6,30.5
2020-08-14T02:04:00Z,00000388,40000608,-000.19,-000.32,0000.20,0000.37,-000.30,-000.28,0000.04,-000.03,0000.27,21.8,02.7,0664.5,30.6
2020-08-14T02:05:00Z,00000388,00000608,0000.04,-000.24,0000.13,0000.71,-000.33,0000.07,0000.11,0000.12,-000.14,21.8,02.8,0664.6,30.6
2020-08-14T02:06:00Z,00000388,00000608,0001.01,0000.34,0000.01,0000.64,0000.04,-000.11,-000.09,-000.01,0000.06,21.9,02.8,0664.7,30.7
2020-08-14T02:07:00Z,00000388,00000608,0001.06,-000.08,-000.08,0000.04,-000.29,0000.05,-000.02,0000.15,-000.02,21.9,02.8,0664.7,30.7
2020-08-14T02:08:00Z,00000388,00000608,0002.73,-000.28,-000.69,0000.61,-000.29,-000.04,0000.02,-000.08,-000.05,22.0,02.8,0664.7,30.8
2020-08-14T02:09:00Z,00000388,00000608,0001.56,0000.09,0000.24,0000.11,-000.21,0000.19,-000.03,0000.07,0000.08,22.0,02.7,0664.7,30.8
2020-08-14T02:10:00Z,00000388,00000608,0000.22,-000.33,-000.05,-000.28,0000.07,0000.09,-000.15,0000.02,0000.09,22.0,02.7,0664.7,30.8
2020-08-14T02:11:00Z,00000388,00000608,0000.08,0000.02,0000.06,0000.02,-000.09,0000.29,0000.12,-000.08,-000.02,22.0,02.7,0664.7,30.7
2020-08-14T02:12:00Z,00000388,00000608,0000.39,-000.14,0000.09,-000.11,-000.27,-000.05,0000.06,0000.03,0000.02,22.0,02.7,0664.7,30.7
2020-08-14T02:13:00Z,00000388,00000608,0000.30,0000.36,0000.01,0000.35,-000.12,0000.03,0000.10,0000.07,-000.05,21.9,02.7,0664.7,30.6
2020-08-14T02:14:00Z,00000388,00000608,0000.54,0000.30,-000.10,0000.19,-000.01,-000.00,0000.02,-000.02,0000.07,21.9,02.7,0664.7,30.6
2020-08-14T02:15:00Z,00000388,00000608,0000.51,0000.15,0000.13,0000.09,-000.14,-000.02,0000.02,0000.02,-000.00,21.9,02.7,0664.6,30.5
2020-08-14T02:16:00Z,00000388,00000608,0000.58,0000.16,0000.11,0000.15,-000.10,-000.01,0000.05,0000.03,0000.08,21.8,02.7,0664.6,30.5
2020-08-14T02:17:00Z,00000388,00000608,0000.75,0000.17,0000.06,0000.38,0000.16,0000.13,-000.08,-000.08,-000.15,21.8,02.7,0664.6,30.5
2020-08-14T02:18:00Z,00000388,00000608,0000.46,-000.03,-000.07,0000.75,-000.17,0000.02,-000.19,-000.09,-000.01,21.8,02.7,0664.6,30.5
2020-08-14T02:19:00Z,00000388,00000608,0000.44,0000.28,0000.50,0000.93,-000.54,0000.20,0000.06,0000.09,0000.06,21.8,02.7,0664.6,30.6
2020-08-14T02:20:00Z,00000388,00000608,0000.53,-000.05,0000.28,0000.87,0000.11,-000.20,0000.06,-000.07,-000.20,21.8,02.7,0664.7,30.6
2020-08-14T02:21:00Z,00000388,00000608,0001.89,0000.39,0000.29,-000.27,-000.06,0000.57,-000.11,0000.11,0000.12,21.9,02.6,0664.7,30.7
2020-08-14T02:22:00Z,00000388,00000608,0000.96,0000.47,0000.03,-000.04,-000.32,0000.13,-000.04,-000.04,-000.08,21.9,02.6,0664.7,30.7
2020-08-14T02:23:00Z,00000388,00000608,0000.80,-000.06,0000.14,0000.14,-000.26,0000.12,-000.06,0000.02,0000.22,22.0,02.5,0664.7,30.7
2020-08-14T02:24:00Z,00000388,00000608,0000.10,0000.16,-000.22,0000.30,-000.19,0000.09,-000.00,-000.05,-000.14,22.0,02.5,0664.8,30.8
2020-08-14T02:25:00Z,00000388,00000608,0000.17,0000.18,0000.05,0000.64,-000.15,0000.29,-000.05,-000.03,-000.02,22.0,02.5,0664.8,30.8
2020-08-14T02:26:00Z,00000388,00000608,0000.50,-000.15,-000.09,0000.49,0000.04,-000.29,-000.04,-000.16,-000.03,22.0,02.5,0664.8,30.7
2020-08-14T02:27:00Z,00000388,00000608,0000.30,0000.25,0000.07,0000.35,0000.03,0000.46,-000.06,0000.15,0000.17,22.0,02.5,0664.8,30.7
2020-08-14T02:28:00Z,00000388,00000608,0000.09,-000.28,0000.09,-000.67,0000.01,0000.19,0000.15,-000.04,-000.03,21.9,02.4,0664.7,30.6
2020-08-14T02:29:00Z,00000388,00000608,0001.16,-000.20,-000.02,-000.21,-000.01,-000.14,0000.14,0000.07,-000.05,21.9,02.4,0664.7,30.6
2020-08-14T02:30:00Z,00000388,00000608,0001.13,-000.16,0000.21,-000.29,-000.34,0000.45,-000.12,0000.04,-000.00,21.8,02.4,0664.7,30.5
2020-08-14T02:31:00Z,00000388,00000608,0000.80,0000.08,0000.60,-000.31,-000.13,0000.18,0000.13,-000.07,0000.14,21.8,02.4,0664.7,30.5
2020-08-14T02:32:00Z,00000388,00000608,-000.61,0000.02,-000.22,0000.16,0000.03,-000.06,-000.21,-000.05,-000.13,21.8,02.4,0664.7,30.5
2020-08-14T02:33:00Z,00000388,00000608,0000.08,0000.07,-000.25,0000.23,0000.20,-000.28,0000.03,0000.17,0000.02,21.7,02.4,0664.7,30.5
2020-08-14T02:34:00Z,00000388,00000608,0000.23,-000.07,-000.03,-000.32,-000.20,0000.23,-000.01,-000.23,-000.03,21.8,02.5,0664.7,30.6
2020-08-14T02:35:00Z,00000388,00000608,0000.58,0000.26,-000.04,0000.39,0000.07,0000.03,-000.02,0000.07,-000.03,21.8,02.4,0664.7,30.6
2020-08-14T02:36:00Z,00000388,00000608,0000.55,-000.31,0000.47,0000.84,-000.32,0000.15,-000.03,0000.09,-000.04,21.8,02.4,0664.7,30.7
2020-08-14T02:37:00Z,00000388,00000608,0000.60,-000.20,0000.02,0000.60,-000.25,0000.33,0000.06,0000.01,0000.12,21.9,02.4,0664.8,30.7
2020-08-14T02:38:00Z,00000388,00000608,0000.58,0000.16,0000.20,-000.00,-000.14,0000.07,0000.05,0000.03,-000.00,21.9,02.3,0664.8,30.7
2020-08-14T02:39:00Z,00000388,00000608,0000.16,0000.07,0000.55,0000.27,-000.28,0000.01,-000.27,-000.12,0000.09,22.0,02.3,0664.8,30.8
2020-08-14T02:40:00Z,00000388,00000608,0000.51,-000.26,0000.20,0000.49,-000.12,0000.38,0000.14,-000.03,-000.23,22.0,02.3,0664.8,30.8
2020-08-14T02:41:00Z,00000388,00000608,0000.60,0000.04,0000.18,0000.62,0000.18,0000.28,0000.07,-000.11,0000.10,22.0,02.3,0664.8,30.7
2020-08-14T02:42:00Z,00000388,00000608,0000.45,-000.02,0000.12,0000.09,-000.22,0000.19,-000.07,0000.20,0000.06,22.0,02.3,0664.8,30.7
2020-08-14T02:43:00Z,00000388,00000608,0001.01,-000.35,0000.25,-000.15,-000.19,0000.38,0000.01,-000.01,0000.02,21.9,02.3,0664.7,30.6
2020-08-14T02:44:00Z,00000388,00000608,0000.01,-000.12,0000.01,-000.46,0000.20,0000.12,0000.11,-000.01,-000.04,21.9,02.3,0664.7,30.6
2020-08-14T02:45:00Z,00000388,00000608,0000.14,0000.58,0000.06,-000.02,-000.01,0000.17,-000.08,0000.17,-000.03,21.8,02.3,0664.7,30.5
2020-08-14T02:46:00Z,00000388,00000608,0000.60,-000.24,0000.06,0000.61,-000.32,0000.02,0000.15,-000.20,0000.04,21.8,02.2,0664.6,30.5
2020-08-14T02:47:00Z,00000388,00000608,0000.61,0000.31,0000.11,0000.88,-000.26,-000.02,-000.06,0000.07,0000.14,21.8,02.3,0664.6,30.5
2020-08-14T02:48:00Z,00000388,00000608,0000.19,-000.10,-000.08,-000.09,-000.02,-000.15,0000.12,0000.02,-000.18,21.8,02.2,0664.6,30.5
2020-08-14T02:49:00Z,00000388,00000608,0000.41,0000.01,-000.12,0000.19,-000.12,-000.25,-000.21,-000.09,0000.03,21.8,02.3,0664.7,30.6
2020-08-14T02:50:00Z,00000388,00000608,0000.36,0000.00,-000.02,-000.01,-000.18,-000.27,-000.03,0000.01,0000.11,21.8,02.3,0664.7,30.6
2020-08-14T02:51:00Z,00000388,00000608,0000.43,0000.61,0000.47,0000.45,-000.02,0000.35,0000.04,0000.09,-000.16,21.8,02.2,0664.8,30.7
2020-08-14T02:52:00Z,00000388,00000608,-000.57,0000.27,0000.29,0000.33,0000.09,-000.26,-000.02,0000.03,0000.19,21.9,02.3,0664.7,30.7
2020-08-14T02:53:00Z,00000388,00000608,0000.75,0000.18,0000.21,0000.12,-000.09,0000.35,-000.02,-000.08,-000.27,21.9,02.2,0664.7,30.7
2020-08-14T02:54:00Z,00000388,00000608,-000.01,0000.14,0000.13,-000.66,-000.06,-000.08,0000.13,0000.03,0000.08,21.8,02.2,0664.7,30.6
2020-08-14T02:55:00Z,00000388,00000608,0001.48,0000.15,0000.19,0000.25,-000.03,-000.17,-000.00,0000.01,0000.12,21.8,02.2,0664.7,30.6
2020-08-14T02:56:00Z,00000388,00000608,0000.46,-000.49,0000.03,0000.44,-000.14,0000.42,0000.08,0000.15,-000.12,21.7,02.2,0664.6,30.5
2020-08-14T02:57:00Z,00000388,40000608,,,,,,,,,,21.8,02.1,0664.5,30.5
2020-08-14T02:58:00Z,00000388,60000608,,,,,,,,,,21.8,02.3,0663.7,30.5
2020-08-14T02:59:00Z,00000388,20000608,,,,,,,,,,21.9,02.2,0663.6,30.4
2020-08-14T03:00:00Z,00000388,20000608,,,,,,,,,,21.9,02.2,0663.6,30.4
2020-08-14T03:01:00Z,00000388,20000608,,,,,,,,,,21.9,02.1,0663.6,30.4
2020-08-14T03:02:00Z,00000388,20000608,,,,,,,,,,21.9,02.1,0663.6,30.4
2020-08-14T03:03:00Z,00000388,60000608,,,,,,,,,,21.9,02.1,0663.6,30.4
2020-08-14T03:04:00Z,00000388,40000608,0001.28,0000.25,0000.17,-000.36,0000.33,0000.28,-000.08,0000.08,-000.04,21.6,02.2,0664.6,30.5
2020-08-14T03:05:00Z,00000388,00000608,0000.90,0000.84,0000.33,-000.53,0000.33,-000.39,-000.07,-000.19,-000.03,21.6,02.1,0664.7,30.6
2020-08-14T03:06:00Z,00000388,00000608,0000.04,0000.61,0000.43,-000.53,0000.32,0000.00,0000.05,0000.09,0000.02,21.6,02.2,0664.7,30.6
2020-08-14T03:07:00Z,00000388,00000608,-000.93,0000.25,0000.73,0000.16,-000.17,0000.03,0000.05,0000.19,0000.05,21.7,02.2,0664.8,30.7
2020-08-14T03:08:00Z,00000388,00000608,-000.28,0001.22,0000.18,-000.37,-000.26,0000.41,0000.11,-000.08,0000.03,21.7,02.2,0664.7,30.7
2020-08-14T03:09:00Z,00000388,00000608,0000.31,0000.48,-000.27,-000.03,0000.45,-000.09,-000.06,0000.18,-000.02,21.7,02.3,0664.8,30.7
2020-08-14T03:10:00Z,00000388,00000608,0000.72,0000.85,0000.45,0000.92,0000.12,-000.53,-000.07,-000.11,0000.19,21.8,02.2,0664.8,30.7